Wind_Speed
18 18 18 18 18 18 18 18 18 18 19 19 20 19 19 19 19 20 20 21 21 21 21 22 23 24 24 25 26 26 27 27 27 27 28 28 28 29 29 29 29 29 29 29
19 19 18 18 18 19 19 19 18 18 18 19 20 20 20 20 20 20 21 22 22 22 23 24 25 25 26 26 27 27 28 28 29 28 29 29 29 29 29 29 29 28 28 28
19 19 20 19 19 19 20 20 19 19 19 20 20 20 20 21 21 21 21 22 22 23 24 25 26 26 26 26 27 28 28 29 29 29 28 28 29 28 28 28 28 27 27 27
19 19 20 19 19 19 19 19 20 20 20 20 20 21 21 20 21 21 21 22 23 24 25 26 26 26 27 27 27 27 28 28 28 28 28 28 28 28 27 26 26 26 26 26
19 20 19 19 19 19 19 18 19 19 20 20 20 21 20 21 21 22 22 23 23 24 25 25 26 26 26 26 27 27 27 28 27 28 27 27 26 26 26 25 24 25 25 25
20 20 19 18 19 19 19 18 19 19 20 20 21 21 21 22 22 23 23 23 24 24 24 25 25 26 26 26 26 26 26 26 26 26 26 27 25 25 24 24 23 24 24 24
21 21 20 19 19 19 19 20 20 20 20 20 21 21 22 23 23 23 23 23 24 24 24 24 25 25 25 25 25 25 25 25 25 25 25 25 25 24 24 24 24 23 24 24
22 22 21 20 20 20 20 20 21 21 21 21 21 22 22 22 23 22 22 23 23 24 24 24 25 25 25 25 24 24 24 24 24 24 24 23 24 24 25 24 24 24 24 24
22 22 22 22 22 21 21 21 21 22 22 22 22 22 22 22 23 23 22 22 22 23 24 24 24 24 24 23 23 23 23 23 23 23 23 24 24 25 25 25 24 24 24 24
22 21 22 22 22 22 22 22 22 22 22 22 23 22 22 23 24 23 23 23 22 22 22 23 24 23 23 23 22 22 22 23 23 23 24 24 23 23 24 24 24 24 24 25
21 21 21 21 21 22 22 23 22 22 22 22 22 23 23 23 24 24 23 23 22 22 22 22 23 23 22 22 22 22 23 23 23 23 23 23 23 23 23 23 24 24 25 25
21 21 21 21 21 22 23 23 23 23 23 22 22 22 22 23 24 24 23 23 22 22 22 22 22 22 23 23 23 23 23 23 23 23 23 23 23 23 24 24 24 25 25 25
22 21 21 21 21 22 22 23 23 23 23 22 22 22 22 22 22 23 22 22 23 23 23 23 23 23 22 22 23 23 23 23 23 23 23 23 23 24 23 23 23 24 25 25
23 22 22 22 23 23 23 23 23 23 23 23 22 22 22 22 22 21 22 22 22 23 23 23 23 23 23 23 22 23 23 23 23 23 23 23 23 23 23 23 23 24 25 25
24 23 23 23 23 24 23 23 23 23 23 22 22 22 22 22 22 21 22 22 23 23 23 23 23 23 23 23 22 22 23 23 23 23 23 23 23 23 23 23 24 24 25 25
24 23 23 23 23 23 23 23 23 23 22 22 22 22 22 22 22 22 23 23 23 23 23 23 22 22 22 22 22 22 22 22 22 22 23 23 23 24 24 24 25 25 25 25
23 22 22 23 23 23 23 23 23 22 22 21 22 22 22 22 22 22 22 22 22 22 22 21 21 21 21 21 22 22 22 22 22 22 23 23 24 24 24 24 25 24 24 25
22 22 22 22 23 23 23 23 23 23 23 22 22 22 22 22 22 22 22 22 22 21 21 21 21 22 22 22 22 22 22 23 23 23 23 23 23 24 24 24 24 24 24 25
22 22 22 22 22 22 22 23 23 22 22 22 21 21 21 21 21 21 21 21 22 22 21 22 22 22 22 23 23 24 23 23 23 23 23 24 24 24 24 24 24 24 25 25
23 23 22 22 22 21 21 21 21 21 21 21 21 21 20 21 21 21 21 22 22 22 22 23 23 23 23 23 22 23 23 23 23 24 24 24 24 24 24 24 25 25 26 26
23 22 22 22 22 22 21 21 21 22 22 22 22 22 21 21 22 23 23 23 23 24 24 24 24 24 24 24 24 24 24 24 24 24 25 25 25 25 25 25 26 26 26 26
23 23 22 22 22 22 22 22 23 23 24 24 24 24 24 23 23 23 23 23 24 24 24 24 24 24 24 25 25 25 25 26 26 26 26 26 26 27 27 27 26 26 26 27
23 23 22 22 22 22 22 23 23 24 24 25 25 25 25 25 24 24 24 24 24 25 25 25 25 26 26 26 26 26 26 27 27 27 27 27 28 28 28 27 27 27 28 28
21 22 21 21 21 21 21 21 22 23 24 25 25 26 26 26 26 25 25 25 26 26 26 26 27 27 27 27 27 27 27 28 28 28 28 28 28 28 28 28 28 28 28 29
21 21 21 22 22 22 22 22 22 22 23 24 25 25 26 26 26 25 25 25 26 27 27 27 27 27 27 28 28 28 28 28 28 29 29 28 28 28 28 28 28 28 28 29
22 22 22 22 23 23 23 23 23 23 24 24 24 24 25 24 25 25 25 26 26 26 27 27 27 27 27 27 27 28 28 28 28 28 28 28 28 28 28 28 28 28 28 28
23 23 23 23 24 24 25 25 25 25 25 25 24 24 24 24 24 25 25 25 25 26 26 27 27 27 27 27 27 27 27 28 27 27 28 28 28 29 28 28 28 28 28 28
Wind_Direction
266 269 269 269 266 264 262 266 267 266 265 264 262 263 263 263 264 266 265 264 265 267 268 268 269 272 274 275 277 279 279 280 280 281 282 284 285 286 286 285 285 283 281 280
267 268 269 268 268 266 265 269 270 267 265 264 262 262 261 261 262 266 266 267 267 268 269 269 271 272 273 275 275 277 278 279 280 281 282 283 286 287 287 285 284 283 282 281
267 268 270 270 269 269 268 271 269 268 267 267 264 264 262 263 264 266 269 270 270 271 270 271 271 272 273 274 275 276 277 278 280 281 282 283 285 287 287 285 284 282 281 282
268 268 269 271 269 269 270 270 268 268 266 267 267 267 266 266 267 269 270 271 272 272 272 272 272 273 276 277 278 279 278 280 281 281 281 283 285 286 287 285 284 283 282 282
269 271 271 269 270 270 272 270 269 269 268 268 268 269 267 266 268 271 272 273 275 275 275 275 275 276 278 278 279 280 280 281 282 281 282 283 283 285 286 287 286 284 282 283
270 271 272 271 269 270 271 269 268 270 269 269 269 269 269 268 271 273 273 274 276 277 277 276 277 278 278 279 279 280 281 281 281 282 282 283 283 283 285 286 286 286 285 286
269 269 270 272 271 270 269 268 269 270 270 271 271 271 272 272 272 273 273 274 276 278 279 279 279 279 279 279 280 281 281 280 280 280 281 282 284 284 285 285 285 287 287 287
271 270 270 271 271 269 268 268 269 270 271 272 273 274 274 276 276 276 275 275 277 278 279 280 280 280 280 280 280 280 281 281 281 281 281 283 285 285 284 285 285 286 287 287
270 271 271 270 269 267 266 267 269 270 271 271 274 275 275 275 275 275 276 277 278 277 278 280 281 281 280 280 279 278 277 279 280 281 281 282 282 282 283 285 285 285 287 287
270 270 270 269 267 267 266 268 269 270 273 274 272 272 274 275 275 277 278 278 279 278 279 280 281 281 280 280 280 279 279 279 281 283 283 283 282 284 285 286 286 287 289 289
269 270 270 268 267 267 268 269 270 272 274 275 274 273 274 275 276 277 278 278 279 280 280 281 280 280 280 280 281 282 281 282 283 284 287 285 286 288 289 289 289 289 290 290
269 269 268 269 269 268 269 270 272 274 274 275 276 276 276 275 276 278 277 277 278 279 279 280 281 279 279 279 280 281 283 284 285 284 286 287 287 288 289 289 290 291 291 292
270 271 269 268 269 270 271 273 273 274 274 274 275 276 277 277 278 278 278 278 280 279 280 280 280 280 279 279 280 282 284 284 285 284 285 287 289 290 290 290 291 293 293 294
270 271 270 269 270 270 271 272 273 273 274 274 274 276 276 276 277 279 280 280 279 279 279 279 280 280 280 280 281 282 284 284 284 284 284 286 288 290 291 291 293 294 294 294
270 270 271 271 272 272 272 272 271 271 272 273 274 275 275 276 277 279 281 283 282 280 279 278 279 279 278 279 279 282 284 286 285 284 284 285 287 289 291 291 292 293 294 294
273 272 272 273 274 274 274 274 272 270 270 272 273 273 274 275 275 277 280 282 282 281 279 278 278 278 279 279 279 282 284 286 287 285 285 286 287 289 291 293 292 293 293 293
273 273 274 272 272 273 272 271 270 270 270 272 273 274 275 275 276 277 279 281 282 281 278 277 277 277 278 278 279 281 283 285 286 287 287 288 289 290 292 293 293 293 293 293
274 274 274 274 272 271 269 269 269 269 271 271 271 272 273 274 276 277 278 278 279 279 279 278 278 277 277 278 279 280 283 284 285 287 288 289 290 291 293 294 294 295 295 295
272 273 274 275 274 272 271 269 269 269 270 271 271 271 271 274 276 277 278 278 278 278 278 279 279 279 280 280 281 281 283 284 285 287 288 289 290 292 293 294 295 296 296 296
272 273 274 275 274 274 273 270 268 269 270 271 272 273 274 274 275 276 277 278 279 278 278 278 279 280 280 281 282 282 283 284 285 287 290 291 292 293 293 293 293 294 295 296
271 272 272 273 274 272 272 271 270 269 270 270 272 274 276 277 276 276 276 277 278 279 279 279 279 279 279 280 282 283 283 285 285 286 288 291 292 293 294 294 295 295 295 296
273 273 272 271 272 273 271 271 271 271 271 271 273 275 277 277 277 277 276 277 278 278 279 280 280 280 280 280 282 283 283 285 285 286 288 289 291 292 292 293 294 295 296 296
272 271 271 272 273 273 272 272 272 273 273 272 273 275 276 276 278 278 278 279 280 279 279 280 281 281 281 281 282 282 284 285 287 288 288 289 290 291 291 292 292 293 295 295
270 270 270 270 271 272 272 273 273 274 275 276 275 275 276 277 277 279 279 279 280 281 281 281 282 282 282 282 282 283 284 285 287 288 288 289 290 290 291 291 292 293 294 295
270 270 270 270 271 272 273 274 276 277 278 277 276 276 276 277 277 279 281 280 281 281 282 282 283 283 283 283 283 283 284 285 286 287 288 288 288 290 290 291 292 293 294 294
269 270 270 272 273 274 274 275 278 281 280 279 278 277 276 276 276 278 280 281 281 281 282 282 283 283 283 283 283 283 284 285 285 286 287 288 288 288 290 291 292 293 294 295
271 271 271 272 274 276 277 278 279 279 280 281 281 279 278 277 276 277 279 281 281 282 283 283 283 284 284 283 283 283 284 285 286 287 288 290 289 289 289 291 292 292 293 294
Height
5776 5776 5776 5776 5776 5775 5775 5775 5775 5775 5775 5775 5775 5775 5775 5776 5776 5776 5776 5776 5776 5776 5775 5775 5775 5774 5773 5772 5771 5770 5769 5767 5766 5764 5762 5760 5757 5755 5753 5751 5748 5747 5745 5744
5771 5771 5770 5770 5770 5770 5769 5769 5769 5769 5769 5769 5769 5769 5769 5770 5770 5770 5770 5769 5769 5769 5768 5768 5767 5766 5765 5764 5763 5762 5760 5759 5757 5755 5753 5750 5748 5745 5743 5741 5739 5737 5736 5734
5765 5765 5765 5765 5765 5764 5764 5764 5764 5763 5764 5763 5763 5763 5763 5763 5763 5763 5763 5762 5762 5761 5761 5760 5759 5758 5757 5756 5754 5753 5751 5749 5747 5745 5743 5741 5738 5736 5733 5731 5730 5728 5726 5725
5759 5760 5759 5762 5759 5758 5758 5757 5757 5756 5756 5756 5756 5756 5756 5756 5756 5756 5756 5755 5754 5753 5752 5751 5750 5749 5748 5747 5745 5744 5742 5740 5738 5736 5734 5732 5730 5728 5725 5723 5721 5719 5718 5716
5753 5752 5753 5753 5753 5752 5751 5751 5750 5750 5750 5750 5750 5750 5750 5749 5749 5749 5748 5748 5747 5745 5744 5743 5742 5741 5739 5738 5737 5735 5733 5732 5730 5728 5725 5723 5721 5719 5718 5715 5713 5711 5710 5709
5747 5746 5747 5748 5747 5746 5746 5745 5745 5744 5744 5744 5743 5744 5744 5743 5742 5741 5741 5740 5739 5738 5736 5735 5734 5732 5731 5730 5728 5726 5725 5723 5721 5719 5717 5715 5713 5712 5710 5708 5706 5705 5703 5702
5740 5740 5740 5741 5740 5740 5741 5740 5738 5738 5737 5737 5737 5737 5737 5735 5735 5734 5733 5732 5731 5730 5728 5727 5726 5724 5723 5721 5720 5718 5717 5715 5714 5712 5710 5708 5706 5705 5703 5702 5700 5698 5696 5695
5734 5734 5736 5734 5733 5733 5733 5732 5732 5731 5731 5730 5730 5730 5729 5728 5727 5726 5725 5724 5723 5722 5721 5719 5718 5716 5715 5713 5712 5711 5709 5708 5706 5704 5703 5701 5700 5698 5697 5695 5693 5691 5690 5688
5728 5729 5727 5726 5726 5726 5725 5725 5725 5724 5724 5724 5723 5723 5722 5721 5720 5718 5717 5716 5715 5714 5713 5712 5710 5708 5707 5706 5705 5703 5702 5701 5699 5698 5696 5694 5693 5692 5690 5688 5686 5684 5683 5681
5720 5720 5720 5719 5718 5718 5718 5718 5718 5718 5717 5717 5716 5715 5714 5713 5712 5711 5710 5709 5708 5707 5706 5704 5703 5701 5700 5699 5698 5696 5695 5694 5693 5691 5689 5688 5686 5684 5683 5681 5679 5678 5676 5674
5713 5713 5712 5712 5712 5712 5711 5711 5711 5710 5710 5709 5708 5708 5707 5706 5705 5704 5703 5702 5700 5699 5698 5697 5696 5694 5693 5692 5691 5690 5689 5687 5686 5684 5682 5681 5679 5677 5676 5674 5672 5671 5669 5666
5706 5706 5705 5705 5705 5704 5704 5704 5703 5703 5702 5702 5701 5700 5699 5699 5698 5697 5695 5694 5693 5692 5691 5690 5688 5687 5686 5685 5684 5683 5681 5680 5679 5677 5676 5674 5673 5671 5669 5667 5665 5663 5661 5659
5699 5698 5698 5698 5698 5697 5697 5696 5696 5695 5695 5694 5693 5693 5692 5691 5690 5689 5688 5687 5686 5685 5684 5682 5681 5680 5679 5678 5677 5676 5675 5673 5672 5670 5669 5667 5666 5664 5662 5661 5658 5656 5653 5651
5691 5691 5691 5691 5690 5690 5689 5689 5688 5687 5687 5687 5686 5686 5685 5684 5683 5682 5681 5680 5679 5678 5676 5675 5674 5673 5672 5671 5670 5669 5667 5666 5665 5663 5662 5660 5659 5657 5655 5653 5651 5649 5646 5643
5684 5684 5683 5683 5682 5682 5681 5681 5680 5680 5680 5679 5679 5679 5678 5677 5676 5675 5674 5673 5672 5670 5669 5668 5667 5666 5665 5664 5663 5662 5660 5659 5658 5656 5655 5653 5651 5650 5648 5646 5644 5641 5639 5636
5676 5676 5675 5675 5675 5674 5673 5673 5673 5672 5672 5672 5672 5671 5671 5670 5669 5668 5667 5665 5664 5663 5662 5661 5660 5659 5658 5656 5655 5654 5653 5652 5651 5649 5648 5646 5644 5642 5641 5639 5636 5634 5631 5629
5668 5668 5668 5667 5667 5666 5665 5665 5665 5665 5664 5664 5664 5664 5663 5662 5661 5660 5659 5658 5657 5655 5654 5653 5653 5652 5651 5650 5649 5647 5646 5645 5644 5642 5641 5639 5637 5635 5633 5631 5629 5626 5624 5621
5660 5660 5660 5659 5659 5658 5658 5657 5657 5657 5657 5657 5657 5656 5655 5655 5654 5653 5652 5651 5650 5649 5648 5646 5646 5645 5644 5643 5642 5641 5639 5638 5636 5635 5633 5632 5630 5628 5626 5623 5621 5619 5616 5614
5652 5652 5652 5651 5651 5650 5650 5650 5650 5649 5649 5649 5649 5649 5648 5647 5647 5646 5645 5644 5643 5642 5641 5640 5639 5638 5637 5636 5635 5634 5632 5631 5629 5627 5626 5624 5622 5620 5618 5616 5614 5611 5609 5606
5645 5645 5644 5644 5643 5643 5643 5642 5642 5642 5642 5642 5642 5641 5641 5640 5639 5638 5638 5637 5636 5635 5634 5632 5631 5630 5629 5628 5627 5626 5625 5623 5622 5620 5618 5616 5614 5612 5610 5608 5606 5603 5601 5599
5637 5637 5637 5636 5636 5636 5635 5635 5635 5635 5635 5635 5634 5634 5633 5633 5632 5631 5630 5629 5628 5627 5626 5625 5623 5623 5622 5620 5619 5618 5617 5615 5614 5612 5610 5609 5606 5604 5602 5600 5598 5595 5593 5591
5630 5629 5629 5629 5629 5629 5628 5628 5627 5627 5627 5627 5626 5626 5625 5624 5623 5622 5621 5621 5620 5618 5617 5616 5615 5614 5613 5612 5611 5609 5608 5607 5605 5604 5602 5600 5598 5596 5594 5592 5590 5587 5585 5583
5622 5622 5622 5621 5621 5621 5621 5620 5620 5619 5619 5619 5618 5617 5616 5616 5615 5614 5613 5612 5611 5610 5609 5608 5607 5606 5604 5603 5602 5600 5599 5598 5596 5595 5593 5591 5589 5587 5585 5583 5581 5579 5577 5574
5614 5614 5614 5614 5614 5613 5613 5612 5612 5611 5611 5610 5609 5608 5607 5607 5606 5605 5604 5604 5602 5601 5600 5599 5598 5596 5595 5593 5592 5591 5590 5588 5587 5585 5584 5582 5580 5578 5576 5574 5572 5570 5567 5565
5607 5607 5607 5606 5606 5606 5605 5604 5604 5603 5602 5601 5600 5599 5599 5598 5597 5596 5595 5594 5593 5592 5591 5590 5588 5587 5586 5584 5583 5582 5580 5579 5578 5576 5574 5573 5571 5569 5567 5565 5563 5561 5558 5556
5599 5599 5599 5599 5598 5598 5597 5597 5596 5595 5594 5593 5592 5591 5590 5589 5588 5587 5586 5585 5584 5583 5582 5580 5579 5578 5576 5575 5574 5572 5571 5569 5568 5566 5565 5563 5561 5559 5558 5555 5553 5551 5549 5546
5591 5591 5591 5591 5590 5590 5589 5588 5588 5587 5586 5584 5583 5582 5581 5580 5579 5578 5578 5576 5575 5574 5573 5571 5570 5569 5567 5566 5564 5563 5561 5560 5558 5557 5555 5553 5552 5550 5548 5546 5544 5542 5539 5537